Albany, NY

11:09 AM EST on January 17, 2018 (GMT -0500)
Albany International

Weather History for KALB - March, 2013

Change the Weather History Date:

Friday, March 29, 2013

  Actual Average Record
Temperature  
Mean Temperature 43 °F 40 °F  
Max Temperature 50 °F 50 °F 85 °F (1946)
Min Temperature 36 °F 31 °F 0 °F (1923)
Degree Days  
Heating Degree Days 22 25  
Month to date heating degree days 912 880  
Since 1 July heating degree days 5450 5824  
Cooling Degree Days 0 0  
Month to date cooling degree days 0 0  
Year to date cooling degree days 0 0  
Moisture  
Dew Point 28 °F    
Average Humidity 57    
Maximum Humidity 75    
Minimum Humidity 39    
Precipitation  
Precipitation 0.00 in 0.11 in 1.37 in (1993)
Month to date precipitation 2.32 3.00  
Year to date precipitation 5.45 7.79  
Snow  
Snow 0.00 in 0.20 in 5.60 in (1984)
Month to date snowfall 19.5 10.6  
Since 1 July snowfall 50.2 57.5  
Snow Depth 0.00 in    
Sea Level Pressure  
Sea Level Pressure 30.11 in    
Wind  
Wind Speed 10 mph (WNW)    
Max Wind Speed 22 mph    
Max Gust Speed 26 mph    
Visibility 10 miles    
Events      
T = Trace of Precipitation, MM = Missing Value Source: NWS Daily Summary

Daily Weather History Graph

Daily Weather History Graph

Search for Another Location

Airport or City:

Trip Planner

Search our weather history database for the weather conditions in past years. The results will help you decide how hot, cold, wet, or windy it might be!

Date:

Astronomy

Mar. 29, 2013 Rise Set
Actual Time 6:42 AM EDT 7:18 PM EDT
Civil Twilight 6:13 AM EDT 7:46 PM EDT
Nautical Twilight 5:40 AM EDT 8:20 PM EDT
Astronomical Twilight 5:05 AM EDT 8:55 PM EDT
Moon 10:20 PM EDT (3/29) 7:45 AM EDT (3/29)
Length of Visible Light 13h 32m
Length of Day
12h 35m
Waning Gibbous, 93% of the Moon is Illuminated
Mar 29
Waning Gibbous
Apr 3
Last Quarter
Apr 10
New
Apr 18
First Quarter
Apr 25
Full

Hourly Weather History & Observations

Time (EDT) Temp. Windchill Dew Point Humidity Pressure Visibility Wind Dir Wind Speed Gust Speed Precip Events Conditions
12:51 AM 41.0 °F 34.7 °F 28.9 °F 62% 30.12 in 10.0 mi WNW 10.4 mph - N/A   Mostly Cloudy
1:51 AM 41.0 °F 34.3 °F 28.9 °F 62% 30.12 in 10.0 mi WNW 11.5 mph - N/A   Mostly Cloudy
2:51 AM 39.0 °F 32.8 °F 28.0 °F 65% 30.12 in 10.0 mi WNW 9.2 mph - N/A   Mostly Cloudy
3:51 AM 37.0 °F 32.4 °F 27.0 °F 67% 30.13 in 10.0 mi WNW 5.8 mph - N/A   Mostly Cloudy
4:51 AM 37.0 °F 31.0 °F 27.0 °F 67% 30.12 in 10.0 mi WNW 8.1 mph - N/A   Mostly Cloudy
5:51 AM 37.0 °F 30.4 °F 28.0 °F 70% 30.12 in 10.0 mi WNW 9.2 mph - N/A   Mostly Cloudy
6:51 AM 36.0 °F 32.1 °F 28.0 °F 73% 30.13 in 10.0 mi NW 4.6 mph - N/A   Partly Cloudy
7:51 AM 39.0 °F 32.8 °F 30.0 °F 70% 30.14 in 10.0 mi WNW 9.2 mph - N/A   Partly Cloudy
8:51 AM 42.1 °F 35.7 °F 30.0 °F 62% 30.14 in 10.0 mi WNW 11.5 mph - N/A   Scattered Clouds
9:51 AM 45.0 °F 39.7 °F 30.0 °F 56% 30.13 in 10.0 mi West 10.4 mph - N/A   Scattered Clouds
10:51 AM 46.9 °F - 30.9 °F 54% 30.13 in 10.0 mi NW 12.7 mph - N/A   Scattered Clouds
11:51 AM 48.9 °F - 30.0 °F 48% 30.12 in 10.0 mi NW 10.4 mph 18.4 mph N/A   Mostly Cloudy
12:51 PM 48.9 °F - 28.0 °F 44% 30.10 in 10.0 mi WNW 13.8 mph 20.7 mph N/A   Mostly Cloudy
1:51 PM 50.0 °F - 27.0 °F 41% 30.08 in 10.0 mi West 13.8 mph 23.0 mph N/A   Mostly Cloudy
2:51 PM 48.9 °F - 26.1 °F 41% 30.07 in 10.0 mi WNW 17.3 mph 26.5 mph N/A   Mostly Cloudy
3:51 PM 48.9 °F - 28.0 °F 44% 30.07 in 10.0 mi WNW 16.1 mph 20.7 mph N/A   Overcast
4:51 PM 46.0 °F 39.6 °F 28.9 °F 51% 30.08 in 10.0 mi WNW 15.0 mph - N/A   Overcast
5:51 PM 44.1 °F 37.1 °F 28.9 °F 55% 30.08 in 10.0 mi West 15.0 mph - N/A   Overcast
6:51 PM 44.1 °F 38.6 °F 28.9 °F 55% 30.09 in 10.0 mi West 10.4 mph - N/A   Mostly Cloudy
7:51 PM 43.0 °F 37.2 °F 28.0 °F 56% 30.09 in 10.0 mi WNW 10.4 mph 18.4 mph N/A   Mostly Cloudy
8:51 PM 39.0 °F 34.0 °F 27.0 °F 62% 30.11 in 10.0 mi WNW 6.9 mph - N/A   Scattered Clouds
9:51 PM 39.9 °F 35.1 °F 28.9 °F 65% 30.12 in 10.0 mi WNW 6.9 mph - N/A   Scattered Clouds
10:51 PM 39.9 °F 35.1 °F 28.9 °F 65% 30.12 in 10.0 mi West 6.9 mph - N/A   Mostly Cloudy
11:51 PM 41.0 °F 35.2 °F 28.0 °F 60% 30.11 in 10.0 mi WNW 9.2 mph - N/A   Overcast